Location: Unspecified
(48.7971°N, 123.6320°W)
Time: 21:01:49
(UTC-07:00)

CZ-3 Stage 3 - Visible Passes

Search period start: 24 June 2019 00:00
Search period end: 04 July 2019 00:00
Orbit: 499 x 34693 km, 30.5° (Epoch: 23 June)

Date Brightness Start Highest point End Pass type
(mag) Time Alt. Az. Time Alt. Az. Time Alt. Az.
24 Jun 6.3 01:29:13 10° WSW 01:44:41 47° S 08:28:30 10° S visible
24 Jun 5.2 21:54:43 10° SSW 22:00:37 26° SE 22:23:16 10° E visible
27 Jun 6.3 01:19:11 10° WSW 01:34:26 46° S 08:11:49 10° S visible
27 Jun 5.2 21:44:38 10° SSW 21:50:25 26° SE 22:12:10 10° E visible
30 Jun 6.3 01:09:09 10° WSW 01:24:12 45° S 07:54:48 10° S visible
30 Jun 5.3 21:34:33 10° SSW 21:40:13 26° SE 22:01:06 10° E visible
03 Jul 6.3 00:59:07 10° WSW 01:13:59 44° S 07:37:26 10° S visible
03 Jul 5.3 21:24:29 10° SSW 21:30:03 26° SE 21:50:06 10° E visible
